Overall — Don Wise Memorial - Mini

Sunday 22 October 2023 · 61 finishers across every class · 4 laps for the winner

Complete overall finishing order for Don Wise Memorial - Mini.
Pos No. Rider Class Laps Time Behind Int Pace
1 #51A SMITH, JAYTIN SM 14-15 4 1:12:47 0:00 18:11
2 #94A MCCULLOUGH, RYLAND SM 14-15 4 1:12:50 +0:03 0:03 18:12
3 #5A WESTON, BODIE SM 14-15 4 1:13:09 +0:22 0:19 18:17
4 #47B HARRISON, EVAN SM 12-13 4 1:14:32 +1:45 1:23 18:38
5 #99C CASH, CARSON MINI 12-13 4 1:14:41 +1:54 0:09 18:40
6 #25B HERTZLER, NOAH SM 12-13 4 1:14:53 +2:06 0:12 18:43
7 #17A POWERS, KARSON SM 14-15 4 1:15:30 +2:43 0:37 18:52
8 #42A SCHLICKENMEYER, SEAN SM 14-15 4 1:15:49 +3:02 0:19 18:57
9 #19C CAWLEY, MASON MINI 12-13 4 1:17:21 +4:34 1:32 19:20
10 #13A AL-AWAM, TORREN SM 14-15 4 1:17:39 +4:52 0:18 19:24
11 #66A LOWE, ALBERT SM 14-15 4 1:17:40 +4:53 0:01 19:25
12 #24A CHRIMES, CHASE SM 14-15 4 1:17:56 +5:09 0:16 19:29
13 #67A BONANNO, ADIN SM 14-15 4 1:17:57 +5:10 0:01 19:29
14 #42C LACY, JACK MINI 12-13 4 1:18:19 +5:32 0:22 19:34
15 #22B FOUTZ, KELLEN SM 12-13 4 1:21:14 +8:27 2:55 20:18
16 #29B POFF, PEYTON SM 12-13 4 1:21:44 +8:57 0:30 20:26
17 #24D OLEARY, NOLAN MINI 9-11 4 1:22:52 +10:05 1:08 20:43
18 #42D COLLINS, JAXON MINI 9-11 4 1:22:53 +10:06 0:01 20:43
19 #21D WIGGINS, MADDIX MINI 9-11 4 1:23:06 +10:19 0:13 20:46
20 #50A CACERES, AIDEN SM 14-15 4 1:23:20 +10:33 0:14 20:50
21 #25K TORRES, TRISTIN MINI 9-11K 4 1:25:30 +12:43 2:10 21:22
22 #4D KERN, QUENTIN MINI 9-11 4 1:25:38 +12:51 0:08 21:24
23 #51D RICE, DANE MINI 9-11 4 1:25:55 +13:08 0:17 21:28
24 #44B GEARHART, CADENCE SM 12-13 4 1:27:20 +14:33 1:25 21:50
25 #44DZ BURKHOLDER, BRADLEY MINI 9-11 4 1:27:57 +15:10 0:37 21:59
26 #22D BAKER, COHEN MINI 9-11 4 1:28:07 +15:20 0:10 22:01
27 #23C NALLS, COLTON MINI 12-13 4 1:29:19 +16:32 1:12 22:19
28 #5D BAKKEN, DASH MINI 9-11 4 1:31:41 +18:54 2:22 22:55
29 #8B LEAVELL, TYLER SM 12-13 4 1:32:37 +19:50 0:56 23:09
30 #2E HARDMAN, SAVANNAH SM WOMEN 3 1:10:20 1 lap 0:00 23:26
31 #50K JOHNSON, LUCAS MINI 9-11K 3 1:10:56 1 lap 0:36 23:38
32 #8E PANCAKE, DELILAH SM WOMEN 3 1:12:41 1 lap 1:45 24:13
33 #11K ADAMSON, CASSEL MINI 9-11K 3 1:13:32 1 lap 0:51 24:30
34 #1K DOMAN, HAYDEN MINI 9-11K 3 1:13:35 1 lap 0:03 24:31
35 #10E PANCAKE, LILLIAN SM WOMEN 3 1:14:33 1 lap 0:58 24:51
36 #10K LAMB, BRANTLEY MINI 9-11K 3 1:16:16 1 lap 1:43 25:25
37 #16C DODD, BENJAMIN MINI 12-13 3 1:16:31 1 lap 0:15 25:30
38 #65D LILLY, RYDER MINI 9-11 3 1:16:32 1 lap 0:01 25:30
39 #26D LILLY, WYATT MINI 9-11 3 1:19:31 1 lap 2:59 26:30
40 #44K MASON, HUNTER MINI 9-11K 3 1:20:17 1 lap 0:46 26:45
41 #11B SENTERS, ZEKE SM 12-13 3 1:20:26 1 lap 0:09 26:48
42 #35C QUESENBERRY, DILLAN MINI 12-13 3 1:20:56 1 lap 0:30 26:58
43 #69D LILLY, COLE MINI 9-11 3 1:21:00 1 lap 0:04 27:00
44 #11EZ LOWE, FELICITY SM WOMEN 3 1:22:05 1 lap 1:05 27:21
45 #13E NICHOLS, ELLA SM WOMEN 3 1:22:33 1 lap 0:28 27:31
46 #4E WINGO, BELLA SM WOMEN 3 1:22:38 1 lap 0:05 27:32
47 #18K PAYNE, DYLAN MINI 9-11K 3 1:23:06 1 lap 0:28 27:42
48 #58E LOHR, CAROLINE SM WOMEN 3 1:25:01 1 lap 1:55 28:20
49 #51K RICE, HOLTON MINI 9-11K 3 1:25:05 1 lap 0:04 28:21
50 #8K MUTER, MAX MINI 9-11K 3 1:27:27 1 lap 2:22 29:09
51 #48E LANDRUM, KINLEY SM WOMEN 3 1:28:13 1 lap 0:46 29:24
52 #55D RAFFERTY, LUKE MINI 9-11 3 1:32:51 1 lap 4:38 30:57
53 #12A SHANNON, PARKER SM 14-15 2 46:48 2 laps 0:00 23:24
54 #14AZ TABLER, TITUS SM 14-15 2 1:03:22 2 laps 16:34 31:41
55 #57K BAKER, CAMDEN MINI 9-11K 2 1:08:10 2 laps 4:48 34:05
56 #18E EDMONDSON, MCKENNA SM WOMEN 2 1:12:27 2 laps 4:17 36:13
57 #16K SCHILLUMEIT, SOPHIA MINI 9-11K 2 1:12:47 2 laps 0:20 36:23
58 #29K PERRY, DYLAN MINI 9-11K 2 1:17:11 2 laps 4:24 38:35
59 #81KZ WOLFORD, BRADLEY MINI 9-11K 2 1:21:35 2 laps 4:24 40:47
60 #77K LAMB, BRYSON MINI 9-11K 2 1:22:14 2 laps 0:39 41:07
61 #39C JACOB LEWIS MINI 12-13 2 1:37:45 2 laps 15:31 48:52

Ranked the way the series ranks: most laps first, then least time. Behind is the deficit to the winner and is only shown where the lap count matches, because elapsed time says nothing across different lap counts — a rider a lap down shows the laps instead. Int is the gap to the rider immediately ahead.